Location: De Greiden
(52.9496°N, 5.9137°E)
Time: 11:18:13
(UTC+00:00)

ATLAS 2AS CENTAUR R/B - Visible Passes

Search period start: 14 May 2021 00:00
Search period end: 24 May 2021 00:00
Orbit: 949 x 1263 km, 63.7° (Epoch: 07 May)

Date Brightness Start Highest point End Pass type
(mag) Time Alt. Az. Time Alt. Az. Time Alt. Az.
14 May 2.9 21:00:47 10° NW 21:08:13 72° SW 21:13:56 16° SSE visible
14 May 4.4 22:53:02 10° WNW 22:57:54 20° WSW 23:01:21 14° SW visible
15 May 2.9 20:15:49 10° NW 20:23:24 87° NE 20:30:21 10° SE visible
15 May 4.0 22:07:30 10° WNW 22:13:34 29° WSW 22:17:54 16° SSW visible
16 May 3.5 21:22:16 10° NW 21:29:07 42° WSW 21:34:29 14° S visible
17 May 3.2 20:37:13 10° NW 20:44:30 60° SW 20:51:07 10° SSE visible
17 May 4.7 22:30:07 10° WNW 22:33:53 15° WSW 22:37:30 10° SW visible
18 May 4.4 21:44:11 10° WNW 21:49:38 23° WSW 21:54:48 10° SSW visible
19 May 3.9 20:58:48 10° NW 21:05:14 34° WSW 21:11:15 10° S visible
20 May 3.5 20:13:40 10° NW 20:20:43 49° WSW 20:27:13 10° SSE visible
20 May 4.9 22:08:00 10° W 22:09:48 11° W 22:11:36 10° WSW visible
21 May 4.7 21:21:04 10° WNW 21:25:38 18° WSW 21:30:02 10° SW visible
22 May 4.3 20:35:25 10° WNW 20:41:20 27° WSW 20:46:53 10° SSW visible
